DECAYED

STARLINK-2240, 48585 (Decayed)

Orbit data source: Space-Track

STARLINK-2240, 48585 was a payload satellite owned by SpaceX/Seattle (US) in LEO that was launched on Sat, 15 May 2021 UTC via an FALCON 9 launch vehicle from the Air Force Eastern Test Range (AFETR). Payload-class satellites include a variety of spacecraft equipped with specific instruments for various scientific and technological missions. These include communications satellites like Starlink; space stations such as the ISS; scientific satellites like the Hubble; Earth observation satellites from companies like Planet Labs, Umbra, and HawkEye 360; GPS; miniature CubeSats for education and research; and military/defense satellites.

Not visible in the next 10 days
Identifier
48585, 2021-041AJ
Orbit
Decayed
Last TLE update
4 months ago
Origin
Manufacturer
SpaceX/Seattle
Mission
Decayed Commercial Communications
Bus & Motor
STARLINK, Unknown motor
Mass
260 kg wet, ~248 kg dry
Launch date (UTC)
2021-05-15 (4 years ago)
Launch vehicle
FALCON 9
Launch site
Air Force Eastern Test Range (AFETR)
Object type
Payload
Rocket body
Debris
Shape & HBR
Box + 1 Pan, 8.86 m
Radar Cross Section
13.562 m², Large (>1 m²)

Expand to show TLE details & history

TLE from 4 months ago
0 STARLINK-2240
1 48585U 21041AJ  25001.68521765  .19911508  12494-4  48078-3 0  9994
2 48585  53.0236 260.5028 0005097 247.6253 209.3208 16.45932342200627
Epoch: 2025-01-01T16:26Z
Definitive object data (Epoch: 2025-01-01T16:26:42.804Z)
Latitude
52.63168°
Longitude
13.66644°
Altitude
159.319 km
Speed
7.815 km/s
True Right ascension
00h 07m 40s
True Declination
52° 27' 02"
Sunlit
Object was in partial shadow at TLE epoch
Visualization observer readout
Visualization observer readout
Orbital elements
Apogee altitude
153.689 km
Perigee altitude
147.033 km
Semi-major axis
6,528.498 km
Eccentricity
0.0005097
Inclination
53.0236°
RAAN
260.5028°
Arg. of periapsis
247.6253°
True anomaly
209.29221°
Mean anomaly
209.3208°
Eccentric anomaly
209.30651°
Mean motion
4.11456 °/min
BSTAR
0.00048078
Orbital period
87.49 mins
Loading maneuver chart data...
Loading SW <> Apogee altitude chart data...
Loading historical data...
Loading historical data...
Loading historical data...
Loading historical data...
Loading historical data...
Loading historical data...
Loading historical data...

STARLINK-2240 Visibility forecast

Observer location: undefined°, undefined°

This satellite is decayed
Span
Click to sort rows by Start time (UTC) header in descending order
Start Az.
Max El. time (UTC)
Max El. Az.
Max El.
End time (UTC)
End Az.
|